This demonstration page uses our WeatherBlox Daily Observations layout. Learn more.

Left ArrowRight Arrow

39.08367, -84.50855

Hourly Observations for July 29, 2015

Temp ( °F °C ) Dew Point ( °F °C ) Humidity (%) Winds ( mph kmh ) Pressure ( in mb ) Visibility ( mi km ) Precip ( " mm )
12:53 am 00:53 Clear with Mist and Fog 75 23.9 75 23.9 100 100 Calm 29.97 1015 5 8 0.00 0.00
1:53 am 01:53 Clear with Mist and Fog 73 22.8 73 22.8 100 100 Calm 29.96 1014 3 4 0.00 0.00
2:00 am 02:00 Clear with Mist and Fog 73 23 73 23 100 100 Calm 29.94 1014 4 6 0.00 0.00
2:25 am 02:25 Clear with Mist and Fog 73 22.8 73 22.8 100 100 Calm 29.94 1014 2 3 0.00 0.00
2:32 am 02:32 Clear with Mist and Fog 73 23 73 23 100 100 Calm 29.94 1014 1 2 0.00 0.00
2:43 am 02:43 Clear with Mist and Fog 73 22.8 73 22.8 100 100 Calm 29.94 1014 3 5 0.00 0.00
2:53 am 02:53 Clear with Mist and Fog 73 22.8 73 22.8 100 100 Calm 29.95 1014 2 3 0.00 0.00
3:04 am 03:04 Clear with Mist and Fog 72 22 72 22 100 100 Calm 29.94 1014 3 5 0.00 0.00
3:28 am 03:28 Clear with Mist and Fog 73 23 73 23 100 100 Calm 29.94 1014 3 4 0.00 0.00
3:45 am 03:45 Clear with Mist and Fog 71 21.7 71 21.7 100 100 Calm 29.94 1014 2 2 0.00 0.00
3:51 am 03:51 Clear with Light Rain 72 22 72 22 100 100 Calm 29.94 1014 3 5 0.00 0.03
3:53 am 03:53 Clear with Light Rain 72 22.2 72 22.2 100 100 Calm 29.94 1014 3 5 0.00 0.03
4:01 am 04:01 Clear with Light Rain 72 22.2 72 22.2 100 100 Calm 29.91 1013 3 4 0.00 0.03
4:19 am 04:19 Clear with Mist and Fog 73 22.8 73 22.8 100 100 Calm 29.94 1014 2 3 0.00 0.03
4:32 am 04:32 Mostly Cloudy with Mist and Fog 72 22 72 22 100 100 Calm 29.94 1014 1 1 0.00 0.00
4:39 am 04:39 Mostly Clear with Mist and Fog 72 22.2 72 22.2 100 100 Calm 29.94 1014 1 2 0.00 0.03
4:51 am 04:51 Mostly Clear with Mist and Fog 72 22 72 22 100 100 Calm 29.94 1014 2 3 0.00 0.03
4:53 am 04:53 Mostly Clear with Mist and Fog 72 22.2 72 22.2 100 100 Calm 29.95 1014 3 4 0.00 0.03
5:03 am 05:03 Mostly Cloudy with Mist and Fog 72 22 72 22 100 100 Calm 29.94 1014 1 2 0.00 0.00
5:12 am 05:12 Mostly Cloudy with Fog 72 22 72 22 100 100 Calm 29.94 1014 1 1 0.00 0.00
5:21 am 05:21 Partly Cloudy with Mist and Fog 71 21.7 71 21.7 100 100 Calm 29.94 1014 3 4 0.00 0.00
5:28 am 05:28 Mostly Clear with Mist and Fog 72 22 72 22 100 100 Calm 29.94 1014 3 5 0.00 0.00
5:30 am 05:30 Partly Cloudy with Mist and Fog 72 22 72 22 100 100 Calm 29.94 1014 2 2 0.00 0.00
5:32 am 05:32 Mostly Cloudy with Mist and Fog 72 22 72 22 100 100 Calm 29.94 1014 1 1 0.00 0.00
5:44 am 05:44 Mostly Clear with Mist and Fog 72 22 72 22 100 100 Calm 29.94 1014 1 2 0.00 0.00
5:49 am 05:49 Mostly Cloudy with Mist and Fog 72 22 72 22 100 100 Calm 29.94 1014 1 1 0.00 0.00
5:53 am 05:53 Mostly Cloudy with Fog 71 21.7 71 21.7 100 100 Calm 29.96 1015 1 1 0.00 0.00
6:11 am 06:11 Mostly Cloudy with Fog 72 22.2 72 22.2 100 100 S 3 6 29.94 1014 1 1 0.00 0.00
6:24 am 06:24 Mostly Cloudy with Fog 72 22 72 22 100 100 Calm 29.94 1014 0 0 0.00 0.00
6:53 am 06:53 Mostly Cloudy with Fog 71 21.7 71 21.7 100 100 Calm 29.97 1015 0 0 0.00 0.00
7:28 am 07:28 Mostly Cloudy with Fog 72 22.2 72 22.2 100 100 Calm 29.97 1015 1 1 0.00 0.00
7:41 am 07:41 Partly Cloudy with Mist and Fog 73 22.8 73 22.8 100 100 Calm 29.97 1015 1 2 0.00 0.00
7:53 am 07:53 Sunny with Mist and Fog 73 22.8 73 22.8 100 100 Calm 29.98 1015 2 3 0.00 0.00
7:57 am 07:57 Partly Cloudy with Mist and Fog 73 22.8 73 22.8 100 100 Calm 29.97 1015 3 4 0.00 0.00
8:34 am 08:34 Partly Cloudy with Mist and Fog 75 23.9 75 23.9 100 100 Calm 29.97 1015 3 5 0.00 0.00
8:53 am 08:53 Partly Cloudy with Mist and Fog 76 24.4 74 23.3 94 94 Calm 29.98 1015 3 5 0.00 0.00
9:53 am 09:53 Hazy 81 27.2 76 24.4 85 85 Calm 29.98 1015 5 8 0.00 0.00
10:53 am 10:53 Sunny 84 28.9 76 24.4 77 77 Calm 29.97 1015 9 14 0.00 0.00
11:53 am 11:53 Partly Cloudy 88 31.1 76 24.4 68 68 VRB 3 6 29.96 1015 10 16 0.00 0.00
12:53 pm 12:53 Mostly Sunny 89 31.7 75 23.9 63 63 Calm 29.94 1014 10 16 0.00 0.00
1:53 pm 13:53 Sunny 90 32.2 76 24.4 63 63 S 7 11 29.94 1014 10 16 0.00 0.00
2:53 pm 14:53 Sunny 92 33.3 73 22.8 54 54 SW 7 11 29.92 1013 10 16 0.00 0.00
3:39 pm 15:39 Mostly Cloudy with Nearby Thunderstorms 87 30.6 74 23.3 65 65 W 16 26 29.88 1012 10 16 0.00 0.03
3:53 pm 15:53 Mostly Cloudy with Thunderstorms 83 28.3 72 22.2 70 70 WSW 14 22 29.93 1014 10 16 0.00 0.03
4:36 pm 16:36 Cloudy with Thunderstorms 79 26 73 23 84 84 S 7 11 29.91 1013 5 8 0.00 0.00
4:53 pm 16:53 Partly Cloudy 78 25.6 74 23.3 87 87 Calm 29.93 1014 10 16 0.04 1.02
5:53 pm 17:53 Sunny 79 26.1 76 24.4 90 90 SSW 3 6 29.94 1014 8 13 0.00 0.00
6:22 pm 18:22 Mostly Cloudy with Light Rain 81 27 77 25 89 89 WNW 5 7 29.91 1013 6 10 0.00 0.00
6:42 pm 18:42 Mostly Cloudy with Thunderstorms 78 25.6 76 24.4 93 93 WSW 7 11 29.94 1014 3 5 0.02 0.51
6:53 pm 18:53 Mostly Cloudy with Thunderstorms 77 25 76 24.4 96 96 S 9 15 29.94 1014 3 5 0.05 1.27
7:00 pm 19:00 Cloudy with Light Rain 77 25 75 24 94 94 SSW 8 13 29.91 1013 6 10 0.00 0.00
7:53 pm 19:53 Partly Cloudy with Light Rain 77 25 75 23.9 94 94 Calm 29.94 1014 9 14 0.00 0.03
8:53 pm 20:53 Mostly Cloudy 77 25 74 23.3 90 90 Calm 29.95 1014 9 14 0.00 0.03
9:53 pm 21:53 Clear with Mist and Fog 76 24.4 75 23.9 97 97 Calm 29.96 1015 6 10 0.01 0.25
10:53 pm 22:53 Clear with Mist and Fog 75 23.9 75 23.9 100 100 SSW 5 7 29.98 1015 5 8 0.00 0.00
11:53 pm 23:53 Clear 75 23.9 74 23.3 96 96 WSW 3 6 29.97 1015 10 16 0.00 0.00

Powered by AerisWeather